Regional Weather Roundup
Issued by NWS Goodland, KS

Home | Current Version | Previous Version | Graphics & Text | Print | Product List | Glossary On
Versions: 1 2 3 4 5 6 7 8 9 10 11 12 13 14 15 16 17 18 19 20 21 22 23 24 25 26 27 28 29 30 31 32 33 34 35 36 37 38 39 40 41 42 43 44 45 46 47 48 49 50
813
ASUS43 KGLD 241708
RWRGLD

GOODLAND FORECAST AREA HOURLY WEATHER ROUNDUP
NATIONAL WEATHER SERVICE GOODLAND KS
1100 AM MDT WED MAY 24 2017

...OFFICIAL OBSERVATIONS...

CITY           SKY/WX    TMP DP  RH WIND       PRES   REMARKS
GOODLAND KS    FAIR      60  41  49 S12       29.80F
HILL CITY KS   FAIR      59  40  49 CALM      29.81F
IMPERIAL NEB   FAIR      61  39  44 VRB7      29.77F
MCCOOK NEB     FAIR      59  38  45 VRB3      29.80F
AKRON CO       FAIR      66  38  35 VRB3      29.76F
BURLINGTON CO  FAIR      64  44  48 S12       29.80F
LIMON CO       FAIR      69  35  28 SE6G16    29.80F
$$

...UNOFFICIAL OBSERVATIONS...

CITY           SKY/WX    TMP DP  RH WIND       PRES   REMARKS
LENORA KS        N/A     57  32  39 MISG        N/A
NORTON KS      SUNNY     57  37  47 CALM      29.79F
SHARON SPRINGS   N/A     63  44  50 SE5G15      N/A
TRENTON NEB      N/A     61  32  33 CALM        N/A
KIT CARSON CO    N/A     63  41  44 MISG        N/A
YUMA CO        FAIR      63  30  29 S10G17    29.76F
$$




USA.gov is the U.S. government's official web portal to all federal, state and local government web resources and services.